Location: Acequia del Cap
(41.7000°N, 0.6167°E)
Time: 01:35:35
(UTC+00:00)

Cosmos 1809 Rocket - Pass Details

Date: 07 August 2020
Orbit: 942 x 962 km, 82.5° (Epoch: 22 September)

Event Time Altitude Azimuth Distance (km) Brightness Sun altitude
Rises 03:06:03 0° 351° (N) 3,619 8.0 -18.3°
Reaches altitude 10° 03:08:33 10° 351° (N) 2,671 7.2 -18.0°
Maximum altitude 03:14:40 86° 264° (W) 955 4.4 -17.1°
Drops below altitude 10° 03:20:46 10° 176° (S) 2,666 6.5 -16.3°
Enters shadow 03:22:00 - 176° (S) 3,130 6.8 -16.1°
